SWA1927 KDEN-KMCI

Flight info

Callsign SWA1927
Flight time 1h 6m
Altitude 39000
Route EXTAN7 SHAYK HYS ZOURA WUTNG3
Aircraft B38M/M-SDE1FGHILORVWXY/HB1

Departure

Time 2026-05-05 12:03
Airport Denver International Airport (KDEN)

Arrival

Time 2026-05-05 13:10
Airport Kansas City International Airport (KMCI)
Time Latitude Longitude Altitude Speed Heading
2026-05-05 11:40 39.86252 -104.67205 5379 ft 0 kts
2026-05-05 11:45 39.86251 -104.67205 5379 ft 0 kts
2026-05-05 11:53 39.86234 -104.67205 5376 ft 4 kts
2026-05-05 11:54 39.86209 -104.67205 5376 ft 4 kts 354°
2026-05-05 11:54 39.86189 -104.67193 5378 ft 4 kts 296°
2026-05-05 11:54 39.86185 -104.67163 5375 ft 2 kts 271°
2026-05-05 11:54 39.86185 -104.67156 5375 ft 0 kts 271°
2026-05-05 11:56 39.86185 -104.67165 5376 ft 4 kts 271°
2026-05-05 11:56 39.86164 -104.67242 5378 ft 14 kts 239°
2026-05-05 11:57 39.86132 -104.67398 5380 ft 22 kts 270°
2026-05-05 11:57 39.86133 -104.67618 5380 ft 25 kts 270°
2026-05-05 11:57 39.86135 -104.67845 5380 ft 25 kts 270°
2026-05-05 11:57 39.86137 -104.68076 5373 ft 26 kts 270°
2026-05-05 11:58 39.86138 -104.68300 5371 ft 21 kts 270°
2026-05-05 11:58 39.86137 -104.68457 5369 ft 15 kts 262°
2026-05-05 11:58 39.86059 -104.68509 5370 ft 14 kts 181°
2026-05-05 11:58 39.85937 -104.68511 5370 ft 22 kts 180°
2026-05-05 11:59 39.85753 -104.68512 5371 ft 29 kts 180°
2026-05-05 11:59 39.85564 -104.68514 5373 ft 25 kts 180°
2026-05-05 11:59 39.85409 -104.68516 5379 ft 21 kts 180°
2026-05-05 11:59 39.85275 -104.68517 5370 ft 15 kts 180°
2026-05-05 12:00 39.85208 -104.68574 5377 ft 15 kts 256°
2026-05-05 12:00 39.85202 -104.68757 5369 ft 26 kts 269°
2026-05-05 12:00 39.85197 -104.69026 5357 ft 31 kts 269°
2026-05-05 12:00 39.85198 -104.69274 5349 ft 25 kts 272°
2026-05-05 12:01 39.85201 -104.69508 5340 ft 24 kts 270°
2026-05-05 12:01 39.85207 -104.69644 5340 ft 10 kts 299°
2026-05-05 12:01 39.85237 -104.69660 5340 ft 0 kts
2026-05-05 12:02 39.85361 -104.69656 5340 ft 50 kts
2026-05-05 12:02 39.85953 -104.69650 5341 ft 118 kts
2026-05-05 12:03 39.86970 -104.69640 5348 ft 172 kts
2026-05-05 12:03 39.88224 -104.69666 5964 ft 183 kts
2026-05-05 12:03 39.89498 -104.69598 6828 ft 185 kts 17°
2026-05-05 12:03 39.90641 -104.68795 7198 ft 195 kts 53°
2026-05-05 12:04 39.91192 -104.67153 7574 ft 210 kts 88°
2026-05-05 12:04 39.90876 -104.65256 7952 ft 230 kts 121°
2026-05-05 12:04 39.90037 -104.63355 8414 ft 254 kts 116°
2026-05-05 12:04 39.89259 -104.61193 8969 ft 274 kts 117°
2026-05-05 12:05 39.88415 -104.58883 9592 ft 290 kts 119°
2026-05-05 12:05 39.87523 -104.56472 10349 ft 299 kts 118°
2026-05-05 12:05 39.86601 -104.54013 11165 ft 305 kts 118°
2026-05-05 12:05 39.85652 -104.51503 11916 ft 313 kts 117°
2026-05-05 12:06 39.84679 -104.48944 12703 ft 319 kts 117°
2026-05-05 12:06 39.83684 -104.46329 13462 ft 326 kts 117°
2026-05-05 12:06 39.82664 -104.43659 14189 ft 332 kts 117°
2026-05-05 12:06 39.81640 -104.40948 14876 ft 336 kts 114°
2026-05-05 12:07 39.81102 -104.37990 15602 ft 338 kts 92°
2026-05-05 12:07 39.81007 -104.34918 16268 ft 343 kts 91°
2026-05-05 12:07 39.80771 -104.31786 16703 ft 356 kts 99°
2026-05-05 12:07 39.80364 -104.28520 16900 ft 376 kts 98°
2026-05-05 12:08 39.79968 -104.25084 17156 ft 392 kts 98°
2026-05-05 12:08 39.79573 -104.21530 17568 ft 402 kts 98°
2026-05-05 12:08 39.79181 -104.17919 18216 ft 405 kts 98°
2026-05-05 12:08 39.78788 -104.14272 18726 ft 410 kts 98°
2026-05-05 12:09 39.78393 -104.10589 19263 ft 413 kts 98°
2026-05-05 12:09 39.77994 -104.06874 19792 ft 417 kts 98°
2026-05-05 12:09 39.77589 -104.03125 20323 ft 421 kts 98°
2026-05-05 12:09 39.77182 -103.99352 20846 ft 424 kts 98°
2026-05-05 12:10 39.76768 -103.95536 21366 ft 428 kts 98°
2026-05-05 12:10 39.76324 -103.91683 21888 ft 432 kts 99°
2026-05-05 12:10 39.76013 -103.89129 22222 ft 434 kts 99°
2026-05-05 12:10 39.75369 -103.83965 22898 ft 439 kts 100°
2026-05-05 12:11 39.74873 -103.80025 23338 ft 444 kts 100°
2026-05-05 12:11 39.74536 -103.77339 23651 ft 446 kts 100°
2026-05-05 12:11 39.74106 -103.71994 24132 ft 453 kts 96°
2026-05-05 12:11 39.73803 -103.67899 24470 ft 458 kts 97°
2026-05-05 12:12 39.73482 -103.63763 24826 ft 463 kts 97°
2026-05-05 12:12 39.73258 -103.60941 25057 ft 466 kts 97°
2026-05-05 12:12 39.72923 -103.56734 25395 ft 470 kts 97°
2026-05-05 12:12 39.72583 -103.52486 25726 ft 475 kts 98°
2026-05-05 12:13 39.72238 -103.48198 26066 ft 480 kts 98°
2026-05-05 12:13 39.71892 -103.43922 26370 ft 485 kts 98°
2026-05-05 12:13 39.71536 -103.39547 26692 ft 489 kts 98°
2026-05-05 12:13 39.71176 -103.35135 27019 ft 493 kts 98°
2026-05-05 12:14 39.70811 -103.30686 27341 ft 498 kts 98°
2026-05-05 12:14 39.70440 -103.26194 27548 ft 504 kts 99°
2026-05-05 12:14 39.70063 -103.21637 27709 ft 511 kts 99°
2026-05-05 12:14 39.69681 -103.17044 28119 ft 513 kts 99°
2026-05-05 12:15 39.69294 -103.12418 28369 ft 519 kts 99°
2026-05-05 12:15 39.68901 -103.07737 28620 ft 523 kts 99°
2026-05-05 12:15 39.68503 -103.03025 28938 ft 527 kts 99°
2026-05-05 12:15 39.68100 -102.98276 29212 ft 531 kts 99°
2026-05-05 12:16 39.67691 -102.93491 29495 ft 535 kts 100°
2026-05-05 12:16 39.67278 -102.88672 29767 ft 539 kts 100°
2026-05-05 12:16 39.66860 -102.83819 30020 ft 543 kts 100°
2026-05-05 12:16 39.66438 -102.78931 30253 ft 547 kts 100°
2026-05-05 12:17 39.66011 -102.74022 30550 ft 548 kts 100°
2026-05-05 12:17 39.65580 -102.69093 30812 ft 551 kts 100°
2026-05-05 12:17 39.65145 -102.64143 31083 ft 553 kts 100°
2026-05-05 12:17 39.64706 -102.59177 31362 ft 555 kts 100°
2026-05-05 12:18 39.64264 -102.54190 31626 ft 557 kts 100°
2026-05-05 12:18 39.63819 -102.49197 31894 ft 559 kts 100°
2026-05-05 12:18 39.63368 -102.44176 32156 ft 562 kts 100°
2026-05-05 12:18 39.62915 -102.39139 32482 ft 562 kts 99°
2026-05-05 12:19 39.62465 -102.34161 32838 ft 562 kts 100°
2026-05-05 12:19 39.62006 -102.29128 33170 ft 562 kts 100°
2026-05-05 12:19 39.61546 -102.24093 33513 ft 562 kts 100°
2026-05-05 12:19 39.61084 -102.19060 33857 ft 562 kts 100°
2026-05-05 12:20 39.60621 -102.14026 34124 ft 562 kts 100°
2026-05-05 12:20 39.60155 -102.08991 34399 ft 563 kts 100°
2026-05-05 12:20 39.59687 -102.03953 34673 ft 563 kts 99°
2026-05-05 12:20 39.59275 -101.98899 34918 ft 564 kts 98°
2026-05-05 12:21 39.58882 -101.93820 35160 ft 565 kts 98°
2026-05-05 12:21 39.58479 -101.88761 35408 ft 566 kts 98°
2026-05-05 12:21 39.58072 -101.83689 35653 ft 566 kts 98°
2026-05-05 12:21 39.57662 -101.78603 35895 ft 566 kts 98°
2026-05-05 12:22 39.57251 -101.73538 36130 ft 566 kts 98°
2026-05-05 12:22 39.56836 -101.68460 36354 ft 567 kts 98°
2026-05-05 12:22 39.56420 -101.63381 36584 ft 567 kts 98°
2026-05-05 12:22 39.56000 -101.58298 36775 ft 568 kts 98°
2026-05-05 12:23 39.55578 -101.53211 36981 ft 568 kts 98°
2026-05-05 12:23 39.55154 -101.48123 37179 ft 568 kts 98°
2026-05-05 12:23 39.54684 -101.43043 37358 ft 566 kts 104°
2026-05-05 12:23 39.53593 -101.38204 37583 ft 555 kts 118°
2026-05-05 12:24 39.52164 -101.33555 37709 ft 557 kts 117°
2026-05-05 12:24 39.50730 -101.28889 37861 ft 557 kts 118°
2026-05-05 12:24 39.49273 -101.24237 38095 ft 558 kts 118°
2026-05-05 12:24 39.47819 -101.19650 38198 ft 558 kts 118°
2026-05-05 12:25 39.46343 -101.15000 38392 ft 558 kts 118°
2026-05-05 12:25 39.44868 -101.10362 38555 ft 558 kts 118°
2026-05-05 12:25 39.43367 -101.05654 38715 ft 559 kts 118°
2026-05-05 12:25 39.41905 -101.01072 38848 ft 558 kts 118°
2026-05-05 12:26 39.40422 -100.96435 38991 ft 558 kts 118°
2026-05-05 12:26 39.38938 -100.91803 39025 ft 558 kts 118°
2026-05-05 12:26 39.35975 -100.82575 38951 ft 555 kts 118°
2026-05-05 12:27 39.33008 -100.73365 38953 ft 555 kts 118°
2026-05-05 12:27 39.30034 -100.64163 38932 ft 555 kts 118°
2026-05-05 12:28 39.27055 -100.54973 38954 ft 555 kts 118°
2026-05-05 12:28 39.24064 -100.45782 38930 ft 556 kts 118°
2026-05-05 12:29 39.21063 -100.36588 38921 ft 556 kts 118°
2026-05-05 12:29 39.18055 -100.27403 38906 ft 556 kts 119°
2026-05-05 12:30 39.15041 -100.18226 38926 ft 556 kts 118°
2026-05-05 12:30 39.12011 -100.09037 38902 ft 557 kts 119°
2026-05-05 12:31 39.08975 -99.99855 38910 ft 557 kts 119°
2026-05-05 12:31 39.05937 -99.90696 38910 ft 556 kts 119°
2026-05-05 12:32 39.02891 -99.81544 38913 ft 557 kts 118°
2026-05-05 12:32 38.99831 -99.72378 38919 ft 559 kts 118°
2026-05-05 12:33 38.96774 -99.63252 38913 ft 558 kts 119°
2026-05-05 12:33 38.93696 -99.54094 38904 ft 558 kts 119°
2026-05-05 12:34 38.90617 -99.44954 38908 ft 557 kts 119°
2026-05-05 12:34 38.87530 -99.35818 38936 ft 558 kts 119°
2026-05-05 12:35 38.84614 -99.26569 38908 ft 564 kts 107°
2026-05-05 12:35 38.82993 -99.16715 38914 ft 566 kts 105°
2026-05-05 12:36 38.81355 -99.06836 38948 ft 567 kts 104°
2026-05-05 12:36 38.79724 -98.96955 38923 ft 567 kts 104°
2026-05-05 12:37 38.78083 -98.87073 38888 ft 567 kts 105°
2026-05-05 12:37 38.76435 -98.77198 38932 ft 567 kts 105°
2026-05-05 12:38 38.74780 -98.67335 38925 ft 566 kts 105°
2026-05-05 12:38 38.73116 -98.57480 38908 ft 566 kts 105°
2026-05-05 12:39 38.71445 -98.47629 38881 ft 566 kts 105°
2026-05-05 12:39 38.69777 -98.37848 38868 ft 566 kts 105°
2026-05-05 12:40 38.68089 -98.28007 38871 ft 566 kts 105°
2026-05-05 12:40 38.66393 -98.18170 38882 ft 566 kts 105°
2026-05-05 12:41 38.64690 -98.08345 38867 ft 566 kts 105°
2026-05-05 12:41 38.62976 -97.98514 38859 ft 566 kts 105°
2026-05-05 12:42 38.61256 -97.88690 38857 ft 565 kts 105°
2026-05-05 12:42 38.59527 -97.78877 38877 ft 565 kts 105°
2026-05-05 12:43 38.57796 -97.69098 38877 ft 564 kts 105°
2026-05-05 12:43 38.56055 -97.59314 38890 ft 565 kts 105°
2026-05-05 12:44 38.54305 -97.49526 38860 ft 566 kts 105°
2026-05-05 12:44 38.52544 -97.39729 38866 ft 566 kts 105°
2026-05-05 12:45 38.50773 -97.29933 38851 ft 566 kts 105°
2026-05-05 12:45 38.48997 -97.20151 38853 ft 566 kts 105°
2026-05-05 12:46 38.47210 -97.10362 38852 ft 566 kts 105°
2026-05-05 12:46 38.45411 -97.00560 38593 ft 566 kts 105°
2026-05-05 12:47 38.44512 -96.95678 37746 ft 568 kts 105°
2026-05-05 12:47 38.43599 -96.90728 36568 ft 578 kts 105°
2026-05-05 12:47 38.42696 -96.85851 36267 ft 568 kts 105°
2026-05-05 12:47 38.41790 -96.80967 35751 ft 565 kts 105°
2026-05-05 12:48 38.40884 -96.76099 35107 ft 564 kts 106°
2026-05-05 12:48 38.39977 -96.71234 34469 ft 564 kts 106°
2026-05-05 12:48 38.39066 -96.66361 33808 ft 564 kts 106°
2026-05-05 12:48 38.38152 -96.61485 32965 ft 566 kts 106°
2026-05-05 12:49 38.37235 -96.56604 32181 ft 567 kts 106°
2026-05-05 12:49 38.36316 -96.51721 31472 ft 566 kts 106°
2026-05-05 12:49 38.35398 -96.46854 30874 ft 563 kts 106°
2026-05-05 12:49 38.34486 -96.42022 30342 ft 559 kts 106°
2026-05-05 12:50 38.33578 -96.37230 29811 ft 554 kts 106°
2026-05-05 12:50 38.32679 -96.32496 29275 ft 548 kts 106°
2026-05-05 12:50 38.31784 -96.27796 28769 ft 542 kts 106°
2026-05-05 12:50 38.30981 -96.23149 28287 ft 537 kts 99°
2026-05-05 12:51 38.30858 -96.18434 27886 ft 530 kts 84°
2026-05-05 12:51 38.31496 -96.13866 27445 ft 520 kts 71°
2026-05-05 12:51 38.32783 -96.09618 26942 ft 509 kts 57°
2026-05-05 12:51 38.34773 -96.05996 26482 ft 492 kts 42°
2026-05-05 12:52 38.37058 -96.02759 25901 ft 490 kts 42°
2026-05-05 12:52 38.39327 -95.99565 25403 ft 483 kts 42°
2026-05-05 12:52 38.41590 -95.96412 24755 ft 480 kts 43°
2026-05-05 12:52 38.43838 -95.93298 24193 ft 473 kts 43°
2026-05-05 12:53 38.46060 -95.90222 23518 ft 470 kts 44°
2026-05-05 12:53 38.48261 -95.87169 22753 ft 465 kts 44°
2026-05-05 12:53 38.50435 -95.84151 22008 ft 458 kts 44°
2026-05-05 12:53 38.52573 -95.81178 21242 ft 451 kts 44°
2026-05-05 12:54 38.56734 -95.75393 19743 ft 438 kts 44°
2026-05-05 12:54 38.58777 -95.72549 19017 ft 431 kts 44°
2026-05-05 12:54 38.60788 -95.69747 18331 ft 425 kts 44°
2026-05-05 12:55 38.62770 -95.66980 17612 ft 418 kts 44°
2026-05-05 12:55 38.64719 -95.64260 16893 ft 412 kts 44°
2026-05-05 12:55 38.66640 -95.61574 16157 ft 406 kts 44°
2026-05-05 12:55 38.68535 -95.58922 15439 ft 401 kts 44°
2026-05-05 12:56 38.70401 -95.56308 14741 ft 396 kts 44°
2026-05-05 12:56 38.72248 -95.53719 14075 ft 391 kts 44°
2026-05-05 12:56 38.74071 -95.51159 13384 ft 387 kts 44°
2026-05-05 12:56 38.75874 -95.48623 12680 ft 381 kts 44°
2026-05-05 12:57 38.77641 -95.46138 12233 ft 376 kts 45°
2026-05-05 12:57 38.79377 -95.43698 12074 ft 363 kts 45°
2026-05-05 12:57 38.81037 -95.41360 12026 ft 347 kts 44°
2026-05-05 12:57 38.82645 -95.39102 11743 ft 339 kts 44°
2026-05-05 12:58 38.84225 -95.36878 11398 ft 335 kts 45°
2026-05-05 12:58 38.85784 -95.34685 11088 ft 330 kts 45°
2026-05-05 12:58 38.87317 -95.32527 10790 ft 324 kts 45°
2026-05-05 12:58 38.88821 -95.30406 10511 ft 318 kts 45°
2026-05-05 12:59 38.89803 -95.29020 10328 ft 314 kts 45°
2026-05-05 12:59 38.91250 -95.26971 10033 ft 305 kts 45°
2026-05-05 12:59 38.92659 -95.24977 9790 ft 298 kts 45°
2026-05-05 13:00 38.95380 -95.21119 9236 ft 288 kts 45°
2026-05-05 13:00 38.96722 -95.19215 8992 ft 285 kts 45°
2026-05-05 13:01 38.99677 -95.12777 8227 ft 277 kts 64°
2026-05-05 13:01 39.00428 -95.10511 7985 ft 274 kts 65°
2026-05-05 13:01 39.01168 -95.08271 7744 ft 269 kts 64°
2026-05-05 13:01 39.01896 -95.06066 7494 ft 267 kts 64°
2026-05-05 13:02 39.02616 -95.03887 7255 ft 262 kts 64°
2026-05-05 13:02 39.03303 -95.01800 7020 ft 251 kts 64°
2026-05-05 13:02 39.03968 -94.99782 6797 ft 239 kts 64°
2026-05-05 13:02 39.04607 -94.97831 6560 ft 228 kts 64°
2026-05-05 13:03 39.05210 -94.95987 6379 ft 220 kts 65°
2026-05-05 13:03 39.05792 -94.94207 6158 ft 214 kts 65°
2026-05-05 13:03 39.06363 -94.92465 5999 ft 214 kts 65°
2026-05-05 13:03 39.06939 -94.90702 5854 ft 214 kts 64°
2026-05-05 13:04 39.07515 -94.88938 5652 ft 213 kts 64°
2026-05-05 13:04 39.08087 -94.87184 5416 ft 211 kts 64°
2026-05-05 13:04 39.08652 -94.85449 5228 ft 209 kts 64°
2026-05-05 13:04 39.09210 -94.83736 5062 ft 206 kts 64°
2026-05-05 13:05 39.09978 -94.82233 4874 ft 200 kts 41°
2026-05-05 13:05 39.11022 -94.81061 4640 ft 198 kts 40°
2026-05-05 13:05 39.12062 -94.79906 4401 ft 196 kts 40°
2026-05-05 13:05 39.13093 -94.78771 4166 ft 194 kts 40°
2026-05-05 13:06 39.14133 -94.77693 3963 ft 192 kts 32°
2026-05-05 13:06 39.15413 -94.77144 3702 ft 194 kts 19°
2026-05-05 13:06 39.16712 -94.76714 3343 ft 192 kts 19°
2026-05-05 13:06 39.17979 -94.76302 3004 ft 180 kts 20°
2026-05-05 13:07 39.19081 -94.75972 2957 ft 146 kts 20°
2026-05-05 13:07 39.19994 -94.75694 2941 ft 131 kts 21°
2026-05-05 13:07 39.20893 -94.75426 2799 ft 134 kts 20°
2026-05-05 13:07 39.21818 -94.75151 2598 ft 139 kts 20°
2026-05-05 13:08 39.22774 -94.74869 2397 ft 141 kts 19°
2026-05-05 13:08 39.23734 -94.74587 2153 ft 141 kts 18°
2026-05-05 13:08 39.24683 -94.74308 1929 ft 140 kts 18°
2026-05-05 13:08 39.25651 -94.74023 1722 ft 145 kts 17°
2026-05-05 13:09 39.26647 -94.73727 1529 ft 147 kts 16°
2026-05-05 13:09 39.27664 -94.73430 1334 ft 150 kts 14°
2026-05-05 13:09 39.28690 -94.73130 1172 ft 153 kts 15°
2026-05-05 13:09 39.29703 -94.72830 1023 ft 143 kts 14°
2026-05-05 13:10 39.30514 -94.72587 1016 ft 87 kts 13°
2026-05-05 13:10 39.30939 -94.72459 1016 ft 48 kts 13°
2026-05-05 13:10 39.31109 -94.72344 1018 ft 20 kts 49°
2026-05-05 13:10 39.31069 -94.72255 1017 ft 17 kts 188°
2026-05-05 13:11 39.30908 -94.72303 1016 ft 31 kts 193°
2026-05-05 13:11 39.30690 -94.72367 1017 ft 33 kts 193°
2026-05-05 13:11 39.30470 -94.72432 1016 ft 30 kts 193°
2026-05-05 13:11 39.30266 -94.72492 1017 ft 31 kts 193°
2026-05-05 13:12 39.30061 -94.72553 1017 ft 29 kts 193°
2026-05-05 13:12 39.29874 -94.72608 1017 ft 22 kts 192°
2026-05-05 13:12 39.29770 -94.72573 1017 ft 16 kts 134°
2026-05-05 13:12 39.29661 -94.72563 1017 ft 18 kts 192°
2026-05-05 13:13 39.29586 -94.72502 1017 ft 15 kts 104°
2026-05-05 13:13 39.29560 -94.72360 1017 ft 17 kts 103°
2026-05-05 13:13 39.29603 -94.72233 1017 ft 14 kts 43°
2026-05-05 13:13 39.29662 -94.72203 1017 ft 6 kts 322°
2026-05-05 13:14 39.29673 -94.72241 1017 ft 2 kts 283°
2026-05-05 13:14 39.29676 -94.72259 1017 ft 0 kts 282°
2026-05-05 13:16 39.29676 -94.72258 1017 ft 0 kts 282°